Погода Закаталы

Погода Закаталы : погода сейчас, прогноз погоды и архив. Всё, что Вы хотите узнать о погоде Закаталы!

Поиск расширенной информации на нашем сайте:

Другие новости

Новости СМИ2

Главная страница сайта

Новости сайта

03.07.2017

Напоминаем, что на нашем специализированном сайте Метеоцентр.Азия вы можете получить высокодетализированные автоматические прогнозы погоды по пунктам России, СНГ и мира в авиационном формате (включающие направление и скорость ветра, видимость, явления погоды, количество и форму облачности, нижнюю и верхнюю границу облачности).


Погода Закаталы - сегодня

Время (UTC), дата Ветер
(°,м/с) 
Видим.   Явления Облачность Т
(°С)
Тd
(°С)
f(%) Тe
(°С)
Pmin
(гПа)
dP
(гПа)
Po
(мм)
O2
(г/м3)
Тmin Tmax R s Состояние
почвы
00 18.11.18 050 (СВ) 20000 м    ясно 
+5.9 +1.9 75 +6  1026.8  -0.1  726  286           
03 18.11.18 020 (С) 20000 м    ясно 
+4.7 +0.5 74 +4  1026.9  -0.2  725  287           
06 18.11.18 360 (С) 20000 м    8/0 средняя 
[Ac und]
+8.4 +1.1 60 +8  1026.8  0.6  726  284  +4.4         
09 18.11.18 230 (ЮЗ) 20000 м    3/3 1500 м средняя 
[Cu med, cong|Ac und]
+13.5 +2.1 46 +14  1025.6  726  278           
12 18.11.18 160 (Ю) 20000 м    4/0 средняя 
[Ac und]
+13.6 +4.3 53 +14  1024.1  -1.4  725  277           
15 18.11.18 050 (СВ) 20000 м    6/0 средняя 
[Ac und]
+8 +3.2 72 +8  1025.2  725  283           
21 18.11.18 020 (С) 20000 м    ясно 
+5.3 +6.1 100 +5  1027.4  726  286           
00 19.11.18 020 (С) 20000 м    ясно 
+3.9 -0.4 73 +3  1027.7  726  288           
03 19.11.18 360 (С) 20000 м    ясно 
+3.2 -0.3 78 +3  1028.3  0.3  726  289           
09 19.11.18 160 (Ю) 20000 м    6/6 1000 м средняя 
[Sc|Ac und]
+9.8 +3.6 65 +10  1027.8  727  282           
12 19.11.18 050 (СВ) 20000 м    1/0 средняя 
[Ac und]
+11.6 +3.4 57 +12  1026.3  -1.1  726  280           
15 19.11.18 050 (СВ) 20000 м    ясно 
+6.3 +3.7 83 +6  1028.7  1.1  727  286           
18 19.11.18 050 (СВ) 20000 м    3/0 средняя 
[Ac und]
+5.4 +2.7 83 +5  1030.1  1.2  728  287    +12.1       
21 19.11.18 360 (С) 4000 м    8/0 средняя 
[Ac und]
+6 +2.1 76 +6  1030  728  287           
00 20.11.18 050 (СВ) 20000 м    3/0 средняя 
[Ac und]
+4 +1.2 82 +4  1029  -1.4  727  288           
03 20.11.18 020 (С) 20000 м    ясно 
+3.5 +0.9 83 +3  1027.6  -1.5  726  288           
09 20.11.18 270 (З) 20000 м    5/5 1000 м средняя 
[Sc|Ac lent]
+10.9 +2.9 58 +11  1023.5  -1.9  724  280           
12 20.11.18 230 (ЮЗ) 20000 м    8/8 1000 м средняя 
[Sc|Ac lent]
+12.2 +4 57 +13  1020.6  -2.4  722  278           
15 20.11.18 020 (С) 20000 м    5/5 1000 м средняя 
[Sc|Ac lent]
+7.6 +4.1 78 +8  1020.8  -0.7  722  282           
21 20.11.18 340 (С) 4000 м    8/0 средняя 
[Ac und]
+8.6 +3.4 70 +9  1018.8  -0.8  720  281           
00 21.11.18 020 (С) 20000 м    4/0 средняя 
[Ac und]
+10 +2.5 60 +10  1017.5  -1  720  279           
03 21.11.18 020 (С) 20000 м    1/0 средняя 
[Ac und]
+9 +2.1 62 +9  1017.1  -0.6  719  280           
06 21.11.18 050 (СВ) 20000 м    8/0 средняя 
[Ac lent]
+12.9 +4.3 56 +13  1015.5  -0.6  719  276  +7.2         
09 21.11.18 230 (ЮЗ) 20000 м    8/8 1000 м средняя 
[Sc|Ac lent]
+15.2 +3.6 46 +16  1015  -0.1  719  274           
12 21.11.18 140 (ЮВ) 20000 м    9/9 1000 м 
[Sc]
+12.8 +6.2 64 +13  1015.1  -0.3  718  275           
Время (UTC), дата Ветер
(°,м/с) 
Видим.   Явления Облачность Т
(°С)
Тd
(°С)
f(%) Тe
(°С)
Pmin
(гПа)
dP
(гПа)
Po
(мм)
O2
(г/м3)
Тmin Tmax R s Состояние
почвы

Для получения пояснительной информации подведите курсор к названию столбца.

ПОГОДА Закаталы - архив

Всё, что Вы хотите узнать о погоде Закаталы - удобно и подробно!

Выберите нужную дату (начиная с 1 января 2015* года) и нажмите кнопку "Найти".
Будут отображены архивные сводки погоды по пункту Закаталы, начиная с указанной даты.


Отображать данные в формате CSV (для использования в таблицах Excel)


Внимание! Наш архив погоды предназначен исключительно для личного некоммерческого использования в познавательных целях. Если Вам необходимы официальные справки о состоянии погоды (для производственных, юридических, коммерческих и т.п. целей), обращайтесь в органы Росгидромета.

*Примечание: данная дата относится к архиву по метеостанциям СССР (Россия, СНГ, Балтия).
Архив по метеостанциям Зарубежной Европы и Азии (кроме Китая) хранится 10 дней, по другим регионам земного шара (Китай, Африка, Америка, Австралия, Океания) - 1 день.

Закаталы - район местоположения метеостанции


Название, широта, долгота, высота метеостанции:
Закаталы 41.6°ш. 46.6°д. 490 м над ур. моря [Азербайджан]

Дополнительная информация

В oтличие oт бoльшинства пoгoдных сайтoв мы публикуем пoдрoбную метеoинфoрмацию в детальнoм прoфессиoнальнoм фoрмате.

Характеристики температуры и влажнoсти вoздуха измеряются на высoте 2 м в тени вдали oт зданий и деревьев.
Скoрoсть ветра измеряется на высoте 10 м (на урoвне рoста челoвека скoрoсть ветра ниже в 1.5-2 раза). Если метеoстанция нахoдится в гoрoде или в лесу, тo скoрoсть ветра занижена на 2-4 м/с пo сравнению с oткрытым местoм. Скoрoсть ветра над акватoриями крупных рек и oзёр, а также на вершинах хoлмoв на 2-5 м/с выше, чем в oбычных услoвиях.
Атмoсфернoе давление в разных тoчках местнoсти мoжет значительнo oтличаться oт давления на метеoстанции, в зависимoсти oт услoвий рельефа (при пoдъёме на 10 м давление пoнижается примернo на 1 мм рт.ст.).